#timestamp,LO_Frequency,Hit,StdDev 
1512590415.1,286047008.4,N
1512590435.8,286047004.9,N
1512590455.7,286047004.9,N
1512590475.5,286047003.5,N
1512590495.4,286047004.0,N
1512590515.2,286047005.9,N
1512590535.0,286047006.1,N
1512590535.9,286047006.1,N
1512590555.8,286047008.6,N
1512590575.6,286047007.0,N
1512590595.4,286047005.3,N
1512590615.3,286047006.0,N
1512590635.1,286047003.3,N
1512590655.9,286047000.3,N
1512590675.7,286047001.1,N
1512590695.5,286047001.3,N
1512590715.4,286047001.5,N
1512590735.2,286046998.4,N
1512590755.0,286047002.0,N
1512590756.0,286047002.0,N
1512590775.8,286047004.1,N
1512590795.6,286047005.8,N
1512590815.5,286047005.9,N
1512590835.3,286047005.7,N
1512590855.1,286047004.8,N
1512590875.9,286047007.1,N
1512590895.7,286047006.2,N
1512590915.6,286047008.9,N
1512590935.4,286047006.2,N
1512590955.2,286047005.6,N
1512590975.1,286047003.6,N
1512590976.0,286047003.6,N
1512590995.8,286047003.6,N
1512591015.6,286047005.9,N
1512591035.5,286047004.4,N
1512591055.3,286047003.1,N
1512591075.2,286047007.2,N
1512591095.9,286047003.3,N
1512591115.7,286047003.5,N
1512591135.6,286047002.3,N
1512591155.4,286047001.1,N
1512591175.2,286046997.2,N
1512591195.1,286047001.0,N
1512591196.0,286047001.0,N
1512591215.8,286047000.4,N
1512591235.7,286047002.4,N
1512591255.5,286046999.9,N
1512591275.3,286046999.8,N
1512591295.2,286047004.1,N
1512591345.0,286047004.0,E
1512591355.9,286047001.1,N
1512591375.7,286046997.0,P
1512591395.5,286046999.4,N
1512591415.4,286047000.8,N
1512591435.2,286047000.7,N
1512591455.0,286047000.6,N
1512591455.9,286047000.6,N
1512591475.8,286047000.4,N
1512591495.6,286047001.2,N
1512591515.5,286046997.6,N
1512591535.3,286046996.1,N
1512591555.1,286046993.3,Y
1512591575.9,286046996.1,P
1512591595.7,286046996.6,N
1512591615.6,286046998.2,N
1512591635.4,286047000.4,N
1512591655.2,286046999.0,N
1512591675.1,286046997.7,N
1512591676.0,286046997.7,N
1512591695.8,286046997.9,N
1512591715.7,286046997.9,N
1512591735.5,286046995.5,Y
1512591755.3,286046999.1,P
1512591775.2,286047000.7,N
1512591795.0,286047001.5,N
1512591795.9,286047001.5,N
1512591815.8,286047001.6,N
1512591835.6,286047004.2,Y
1512591855.4,286047005.8,P
1512591875.3,286047007.2,N
1512591895.1,286047007.2,N
1512591915.8,286047004.6,N
1512591935.7,286047005.0,N
1512591955.5,286047001.7,N
1512591975.4,286047005.0,N
1512591995.2,286047009.1,Y
1512592015.0,286047004.4,P
1512592015.9,286047004.4,P
1512592035.8,286047001.9,P
1512592055.6,286047004.2,Y
1512592075.5,286046997.7,P
1512592095.3,286046996.2,N
1512592115.1,286046993.3,N
1512592135.9,286046993.9,N
1512592155.7,286046990.2,N
1512592175.5,286046990.1,N
1512592195.4,286046992.0,N
1512592215.2,286046992.5,N
1512592235.1,286046991.5,N
1512592236.0,286046991.5,N
1512592255.8,286046987.5,Y
1512592275.6,286046995.4,P
1512592295.5,286046995.6,P
1512592315.3,286046997.7,P
1512592335.2,286046998.3,N
1512592355.9,286046996.7,N
1512592375.7,286046999.1,N
1512592395.6,286046998.5,N
1512592415.4,286046999.0,N
1512592435.3,286046997.1,N
1512592455.1,286046997.8,N
1512592456.0,286046997.8,N
1512592475.8,286046997.4,N
1512592495.7,286046993.4,Y
1512592515.5,286046997.2,P
1512592535.3,286047000.9,P
1512592555.2,286047002.3,N
1512592575.0,286046999.8,N
1512592575.9,286046999.8,N
1512592595.8,286046999.1,N
1512592615.6,286046999.4,N
1512592635.4,286046999.4,N
1512592655.3,286046999.5,N
1512592675.1,286046998.8,N
1512592695.9,286047001.7,N
1512592715.7,286047004.2,N
1512592735.5,286047000.4,N
1512592755.4,286046998.7,N
1512592775.2,286047000.7,N
1512592795.0,286047002.5,N
1512592795.9,286047002.5,N
1512592815.8,286047004.4,N
1512592835.6,286047003.4,N
1512592855.5,286047005.5,N
1512592875.3,286047003.1,N
1512592895.1,286047005.4,N
1512592915.9,286047005.2,N
1512592935.7,286047003.1,N
1512592955.6,286047003.0,N
1512592975.4,286047005.4,N
1512592995.2,286047005.8,N
1512593015.1,286047001.5,N
1512593016.0,286047001.5,N
1512593035.8,286047002.1,N
1512593055.6,286047003.9,N
1512593075.5,286047004.2,N
1512593095.3,286047005.4,N
1512593115.2,286047003.5,N
1512593135.0,286047002.0,N
1512593135.9,286047002.0,N
1512593155.8,286047002.4,N
1512593175.6,286047003.7,N
1512593195.4,286047004.6,N
1512593215.3,286047004.1,N
1512593235.1,286047000.2,N
1512593255.8,286047001.0,N
1512593275.7,286047004.4,N
1512593295.5,286047005.3,Y
1512593315.4,286047004.0,P
1512593335.2,286047001.9,P
1512593355.0,286046999.8,N
1512593355.9,286046999.8,N
1512593375.8,286047002.6,N
1512593395.6,286047000.7,N
1512593415.5,286046997.0,N
1512593435.3,286046999.2,N
1512593455.1,286046998.7,N
1512593475.9,286046999.5,N
1512593495.7,286046999.5,N
1512593515.6,286046999.2,N
1512593535.4,286046994.9,N
1512593555.2,286046997.6,N
1512593575.1,286046997.2,N
1512593576.0,286046997.2,N
1512593595.8,286046997.4,N
1512593615.6,286046995.5,N
1512593635.5,286046994.1,N
1512593655.3,286046991.6,Y
1512593675.2,286046992.1,P
1512593695.9,286046995.3,N
1512593715.7,286046997.1,N
1512593735.6,286046997.8,N
1512593755.4,286046998.9,N
1512593775.3,286047001.0,N
1512593795.1,286046999.5,N
1512593796.0,286046999.5,N
1512593815.8,286046999.1,N
1512593835.7,286047011.9,Y
1512593855.5,286047000.3,P
1512593875.4,286047000.2,N
1512593895.2,286046999.0,N
1512593915.0,286046999.2,N
1512593915.9,286046999.2,N
1512593935.8,286046996.7,Y
1512593955.6,286046997.6,P
1512593975.5,286046994.0,P
1512593995.3,286046993.3,P
